EW2672 Weather Reports


Display with metric or nautical units.
time (UTC)temp
F
wind
direction
speed
MPH
gust
MPH
rain 1hr
in
rain 24hr
in
rain mn
in
humidity
%
barometer
mb
20260905073321 79 0.0 0.0 0.00 0.03 0.00 82 1014.2
20260905072819 79 0.0 0.0 0.00 0.03 0.00 82 1014.3
20260905072317 79 0.0 2.0 0.00 0.03 0.00 82 1014.3
20260905071813 79 0.0 2.0 0.00 0.03 0.00 81 1014.3
20260905071311 79 0.0 0.0 0.00 0.03 0.00 81 1014.3
20260905070809 79 0.0 0.0 0.00 0.03 0.00 81 1014.3
20260905070307 79 0.0 0.0 0.00 0.03 0.00 80 1014.4
20260905065803 79 0.0 2.0 0.00 0.03 0.00 80 1014.4
20260905065301 80 0.0 5.0 0.00 0.03 0.00 80 1014.4
20260905064759 80 0.0 5.0 0.00 0.03 0.00 80 1014.5
20260905064257 80 1.0 5.0 0.00 0.03 0.00 79 1014.5
20260905063753 80 0.0 3.0 0.00 0.03 0.00 79 1014.6
20260905063251 80 0.0 3.0 0.00 0.03 0.00 79 1014.6
20260905062749 80 0.0 1.0 0.00 0.03 0.00 79 1014.5
20260905062247 80 0.0 3.0 0.00 0.03 0.00 78 1014.5
20260905061743 80 0.0 3.0 0.00 0.03 0.00 78 1014.6
20260905061241 80 0.0 5.0 0.00 0.03 0.00 78 1014.6
20260905060739 80 0.0 3.0 0.00 0.03 0.00 77 1014.6
20260905060237 80 0.0 2.0 0.00 0.03 0.00 77 1014.6
20260905055733 80 0.0 5.0 0.00 0.03 0.00 77 1014.6
20260905055231 80 0.0 5.0 0.00 0.03 0.00 76 1014.5
20260905054729 81 160 1.0 5.0 0.00 0.03 0.00 76 1014.6
20260905054227 81 0.0 3.0 0.00 0.03 0.00 76 1014.7
20260905053723 81 160 1.0 3.0 0.00 0.03 0.00 75 1014.6
20260905053221 81 0.0 3.0 0.00 0.03 0.00 75 1014.6
20260905052719 81 160 1.0 6.0 0.00 0.03 0.00 75 1014.5
20260905052215 81 160 2.0 8.0 0.00 0.03 0.00 75 1014.6
20260905051713 81 159 1.0 6.0 0.00 0.03 0.00 75 1014.7
20260905051211 81 159 2.0 6.0 0.00 0.03 0.00 75 1014.7
20260905050707 81 0.0 2.0 0.00 0.03 0.00 75 1014.8
20260905050205 81 0.0 0.0 0.00 0.03 0.00 75 1014.8
20260905045703 81 0.0 5.0 0.00 0.03 0.03 75 1014.8
20260905045201 81 159 1.0 5.0 0.00 0.03 0.03 75 1014.7
20260905044659 81 1.0 2.0 0.00 0.03 0.03 75 1014.7
20260905044155 81 0.0 2.0 0.00 0.03 0.03 74 1014.7
20260905043653 81 0.0 3.0 0.00 0.03 0.03 74 1014.8
20260905043151 82 0.0 3.0 0.00 0.03 0.03 74 1014.7
20260905042647 82 0.0 3.0 0.00 0.03 0.03 74 1014.7
20260905042145 82 1.0 3.0 0.00 0.03 0.03 73 1014.7
20260905041643 82 0.0 6.0 0.00 0.03 0.03 73 1014.6
20260905041141 82 159 1.0 3.0 0.00 0.03 0.03 73 1014.6
20260905040637 82 159 1.0 5.0 0.00 0.03 0.03 73 1014.6
20260905040135 82 159 1.0 5.0 0.00 0.03 0.03 73 1014.5
20260905035633 82 0.0 2.0 0.00 0.03 0.03 74 1014.6
20260905035131 82 0.0 2.0 0.00 0.03 0.03 73 1014.6
20260905034627 82 0.0 0.0 0.00 0.03 0.03 73 1014.5
20260905034125 82 0.0 0.0 0.00 0.03 0.03 73 1014.5
20260905033623 82 0.0 0.0 0.00 0.03 0.03 73 1014.5
20260905033121 82 0.0 0.0 0.00 0.03 0.03 73 1014.5
20260905032617 83 0.0 0.0 0.00 0.03 0.03 72 1014.5
20260905032115 83 0.0 0.0 0.00 0.03 0.03 73 1014.5
20260905031613 83 0.0 3.0 0.00 0.03 0.03 73 1014.5
20260905031111 83 159 1.0 3.0 0.00 0.03 0.03 72 1014.4
20260905030607 83 0.0 2.0 0.00 0.03 0.03 72 1014.3
20260905030105 83 0.0 1.0 0.00 0.03 0.03 72 1014.3
20260905025603 83 0.0 0.0 0.00 0.03 0.03 72 1014.2
20260905025101 83 0.0 2.0 0.00 0.03 0.03 72 1014.2
20260905024557 83 0.0 2.0 0.00 0.03 0.03 72 1014.2
20260905024055 83 0.0 1.0 0.00 0.03 0.03 71 1014.2
20260905023553 83 0.0 2.0 0.00 0.03 0.03 71 1014.1
20260905023051 84 0.0 6.0 0.00 0.03 0.03 71 1014.1
20260905022547 84 159 1.0 6.0 0.00 0.03 0.03 71 1014.0
20260905022045 84 0.0 1.0 0.00 0.03 0.03 71 1013.9
20260905021543 84 0.0 3.0 0.00 0.03 0.03 71 1013.9
20260905021041 84 0.0 3.0 0.00 0.03 0.03 70 1013.9
20260905020537 84 0.0 3.0 0.00 0.03 0.03 70 1013.7
20260905020035 84 0.0 6.0 0.00 0.03 0.03 70 1013.7
20260905015531 84 159 1.0 6.0 0.00 0.03 0.03 70 1013.7
20260905015029 84 159 1.0 5.0 0.00 0.03 0.03 70 1013.6
20260905014527 84 0.0 5.0 0.00 0.03 0.03 70 1013.4
20260905014025 84 159 1.0 4.0 0.00 0.03 0.03 70 1013.4
20260905013523 85 0.0 7.0 0.00 0.03 0.03 69 1013.4
20260905013015 85 0.0 7.0 0.00 0.03 0.03 69 1013.4
20260905012513 85 1.0 3.0 0.00 0.03 0.03 69 1013.4
20260905012011 85 0.0 8.0 0.00 0.03 0.03 68 1013.3
20260905011507 85 159 2.0 8.0 0.00 0.03 0.03 68 1013.2
20260905011005 85 0.0 3.0 0.00 0.03 0.03 67 1013.2
20260905010501 85 0.0 3.0 0.00 0.03 0.03 66 1013.2
20260905005959 86 0.0 2.0 0.00 0.03 0.03 66 1013.2
20260905005457 86 0.0 3.0 0.00 0.03 0.03 65 1013.2
20260905004955 86 0.0 3.0 0.00 0.03 0.03 65 1013.1
20260905004451 86 0.0 9.0 0.00 0.03 0.03 65 1013.2
20260905003949 86 153 1.0 9.0 0.00 0.03 0.03 64 1013.1
20260905003447 86 165 1.0 5.0 0.00 0.03 0.03 63 1013.0
20260905002945 87 165 2.0 6.0 0.00 0.03 0.03 63 1012.9
20260905002441 87 165 1.0 6.0 0.00 0.03 0.03 62 1012.9
20260905001939 87 165 1.0 8.0 0.00 0.03 0.03 61 1012.9
20260905001437 88 165 2.0 8.0 0.00 0.03 0.03 61 1012.9
20260905000934 88 162 2.0 7.0 0.00 0.03 0.03 59 1012.8
20260905000432 89 1.0 8.0 0.00 0.03 0.03 57 1012.7
20260904235928 89 164 2.0 8.0 0.00 0.03 0.03 55 1012.6
20260904235426 89 168 1.0 8.0 0.00 0.03 0.03 55 1012.5
20260904234924 89 168 2.0 8.0 0.00 0.03 0.03 56 1012.6
20260904234420 89 169 1.0 7.0 0.00 0.03 0.03 57 1012.6
20260904233918 90 170 2.0 8.0 0.00 0.03 0.03 56 1012.6
20260904233416 90 170 1.0 9.0 0.00 0.03 0.03 55 1012.5
20260904232914 92 164 2.0 9.0 0.00 0.03 0.03 53 1012.6
20260904232410 93 173 1.0 6.0 0.00 0.03 0.03 52 1012.5
20260904231908 94 172 2.0 7.0 0.00 0.03 0.03 49 1012.5
20260904231406 94 174 2.0 8.0 0.00 0.03 0.03 43 1012.4
20260904230904 94 173 1.0 8.0 0.00 0.03 0.03 43 1012.3
20260904230400 95 186 1.0 4.0 0.00 0.03 0.03 44 1012.4
20260904225858 95 0.0 6.0 0.00 0.03 0.03 43 1012.4
20260904225356 95 186 1.0 6.0 0.00 0.03 0.03 41 1012.5
20260904224854 95 191 1.0 6.0 0.00 0.03 0.03 41 1012.5
20260904224350 95 192 1.0 8.0 0.00 0.03 0.03 39 1012.5
20260904223848 95 192 1.0 8.0 0.00 0.03 0.03 38 1012.5
20260904223344 95 173 1.0 5.0 0.00 0.03 0.03 39 1012.6
20260904222842 95 0.0 5.0 0.00 0.03 0.03 39 1012.6
20260904222340 95 0.0 4.0 0.00 0.03 0.03 37 1012.6
20260904221838 95 178 1.0 5.0 0.00 0.03 0.03 38 1012.6
20260904221334 95 178 1.0 7.0 0.00 0.03 0.03 39 1012.6
20260904220832 95 178 2.0 7.0 0.00 0.03 0.03 38 1012.6
20260904220330 95 178 1.0 7.0 0.00 0.03 0.03 38 1012.6
20260904215828 95 178 2.0 7.0 0.00 0.03 0.03 39 1012.7
20260904215324 95 178 2.0 5.0 0.00 0.03 0.03 39 1012.8
20260904214822 95 179 1.0 7.0 0.00 0.03 0.03 39 1012.9
20260904214320 95 179 2.0 7.0 0.00 0.03 0.03 39 1012.9
20260904213818 95 178 1.0 5.0 0.00 0.03 0.03 38 1013.0
20260904213314 95 1.0 5.0 0.00 0.03 0.03 38 1013.2
20260904212812 95 178 1.0 7.0 0.00 0.03 0.03 39 1013.2
20260904212310 94 0.0 8.0 0.00 0.03 0.03 40 1013.3
20260904211808 94 171 2.0 8.0 0.00 0.03 0.03 40 1013.3
20260904211304 95 165 3.0 7.0 0.00 0.03 0.03 42 1013.3
20260904210802 95 179 2.0 7.0 0.00 0.03 0.03 42 1013.3
20260904210300 95 1.0 7.0 0.00 0.03 0.03 43 1013.3
20260904205758 94 178 1.0 10.0 0.00 0.03 0.03 42 1013.4
20260904205254 95 166 2.0 10.0 0.00 0.03 0.03 41 1013.5
20260904204752 95 183 1.0 7.0 0.00 0.03 0.03 39 1013.6
20260904204250 94 183 1.0 7.0 0.00 0.03 0.03 40 1013.6
20260904203748 94 184 1.0 8.0 0.00 0.03 0.03 41 1013.8
20260904203244 94 188 2.0 8.0 0.00 0.03 0.03 42 1013.7
20260904202742 94 182 2.0 8.0 0.00 0.03 0.03 44 1013.8
20260904202240 94 168 1.0 7.0 0.00 0.03 0.03 43 1013.9
20260904201738 93 169 1.0 7.0 0.00 0.03 0.03 44 1013.9
20260904201234 93 171 2.0 7.0 0.00 0.03 0.03 42 1014.0
20260904200732 93 170 1.0 6.0 0.00 0.03 0.03 46 1014.1
20260904200230 93 1.0 7.0 0.00 0.03 0.03 45 1014.1
20260904195726 93 171 1.0 7.0 0.00 0.03 0.03 44 1014.1
20260904195224 93 171 1.0 7.0 0.00 0.03 0.03 47 1014.1
20260904194722 92 171 1.0 4.0 0.00 0.03 0.03 46 1014.2
20260904194218 93 171 1.0 7.0 0.00 0.03 0.03 46 1014.2
20260904193716 93 158 2.0 7.0 0.00 0.03 0.03 46 1014.3
20260904193214 94 153 2.0 8.0 0.00 0.03 0.03 43 1014.4
20260904192712 94 162 2.0 12.0 0.00 0.03 0.03 46 1014.4
20260904192208 94 199 1.0 12.0 0.00 0.03 0.03 44 1014.5
20260904191706 94 145 2.0 9.0 0.00 0.03 0.03 47 1014.5
20260904191204 94 164 3.0 9.0 0.00 0.03 0.03 43 1014.6
20260904190702 94 161 2.0 9.0 0.00 0.03 0.03 48 1014.6
20260904190158 93 182 1.0 10.0 0.00 0.03 0.03 50 1014.7
20260904185656 92 186 1.0 10.0 0.00 0.03 0.03 50 1014.8
20260904185154 92 176 2.0 7.0 0.00 0.03 0.03 48 1015.0
20260904184652 92 175 2.0 7.0 0.00 0.03 0.03 51 1014.9
20260904184148 92 173 2.0 7.0 0.00 0.03 0.03 54 1015.0
20260904183646 92 157 1.0 8.0 0.00 0.03 0.03 57 1015.0
20260904183144 91 158 1.0 10.0 0.00 0.03 0.03 56 1015.1
20260904182642 91 167 1.0 10.0 0.00 0.03 0.03 58 1015.0
20260904182138 91 157 3.0 8.0 0.00 0.03 0.03 60 1015.0
20260904181636 91 158 2.0 8.0 0.00 0.03 0.03 60 1015.1
20260904181134 91 147 2.0 8.0 0.00 0.03 0.03 60 1015.1
20260904180632 91 146 1.0 9.0 0.00 0.03 0.03 60 1015.2
20260904180128 91 150 2.0 8.0 0.00 0.03 0.03 61 1015.2
20260904175626 90 172 2.0 9.0 0.00 0.03 0.03 60 1015.1
20260904175124 90 176 3.0 9.0 0.00 0.03 0.03 60 1015.2
20260904174622 91 176 2.0 9.0 0.00 0.03 0.03 59 1015.2
20260904174118 91 143 1.0 11.0 0.00 0.03 0.03 58 1015.3
20260904173616 91 150 3.0 11.0 0.00 0.03 0.03 60 1015.3
20260904173114 90 180 1.0 8.0 0.00 0.03 0.03 61 1015.4
20260904172612 90 179 3.0 8.0 0.00 0.03 0.03 61 1015.5
20260904172108 90 174 1.0 6.0 0.00 0.03 0.03 61 1015.5
20260904171606 90 177 1.0 5.0 0.00 0.03 0.03 60 1015.5
20260904171102 90 177 1.0 5.0 0.00 0.03 0.03 60 1015.5
20260904170600 90 177 1.0 6.0 0.00 0.03 0.03 62 1015.6
20260904170058 90 177 1.0 6.0 0.00 0.03 0.03 61 1015.6
20260904165556 90 177 1.0 6.0 0.00 0.03 0.03 61 1015.7
20260904165052 89 198 1.0 5.0 0.00 0.03 0.03 62 1015.6
20260904164550 88 205 1.0 5.0 0.00 0.03 0.03 66 1015.5
20260904164048 88 205 1.0 6.0 0.00 0.03 0.03 65 1015.6
20260904163546 88 205 1.0 4.0 0.00 0.03 0.03 65 1015.6
20260904163042 88 205 1.0 5.0 0.00 0.03 0.03 64 1015.6
20260904162540 88 0.0 5.0 0.00 0.03 0.03 67 1015.6
20260904162038 88 205 1.0 4.0 0.00 0.03 0.03 68 1015.5
20260904161536 87 0.0 5.0 0.00 0.03 0.03 70 1015.5
20260904161032 87 206 1.0 7.0 0.00 0.03 0.03 70 1015.5
20260904160530 86 207 1.0 7.0 0.00 0.03 0.03 70 1015.5
20260904160028 86 209 1.0 6.0 0.00 0.03 0.03 72 1015.5
20260904155526 85 216 2.0 6.0 0.00 0.03 0.03 71 1015.5
20260904155022 85 0.0 7.0 0.00 0.03 0.03 72 1015.5
20260904154520 85 223 1.0 7.0 0.00 0.03 0.03 73 1015.6
20260904154018 85 209 1.0 5.0 0.00 0.03 0.03 72 1015.6
20260904153516 85 209 1.0 5.0 0.00 0.03 0.03 75 1015.5
20260904153012 84 0.0 4.0 0.00 0.03 0.03 77 1015.5
20260904152510 84 210 1.0 4.0 0.00 0.03 0.03 77 1015.5
20260904152008 83 210 1.0 4.0 0.00 0.03 0.03 80 1015.4
20260904151506 82 0.0 3.0 0.00 0.03 0.03 82 1015.4
20260904151002 82 0.0 5.0 0.00 0.03 0.03 82 1015.4
20260904150500 81 0.0 5.0 0.00 0.03 0.03 83 1015.3
20260904145958 81 0.0 4.0 0.00 0.03 0.03 84 1015.3
20260904145456 81 216 1.0 7.0 0.00 0.03 0.03 86 1015.2
20260904144952 80 0.0 5.0 0.00 0.03 0.03 86 1015.2
20260904144450 80 188 1.0 5.0 0.00 0.03 0.03 87 1015.2
20260904143946 80 0.0 5.0 0.00 0.03 0.03 88 1015.2
20260904143444 79 188 1.0 4.0 0.00 0.03 0.03 89 1015.2
20260904142942 79 188 1.0 4.0 0.00 0.03 0.03 90 1015.2
20260904142440 79 0.0 2.0 0.00 0.03 0.03 90 1015.2
20260904141936 79 0.0 2.0 0.00 0.03 0.03 90 1015.1
20260904141434 79 0.0 3.0 0.01 0.03 0.03 91 1015.2
20260904140932 79 0.0 4.0 0.01 0.03 0.03 91 1015.1
20260904140430 78 0.0 5.0 0.01 0.03 0.03 91 1015.0
20260904135926 78 0.0 5.0 0.01 0.03 0.03 91 1015.0
20260904135424 78 0.0 4.0 0.02 0.03 0.03 91 1015.0
20260904134922 78 0.0 4.0 0.02 0.03 0.03 92 1015.0
20260904134420 78 0.0 2.0 0.02 0.03 0.03 92 1014.9
20260904133916 78 0.0 4.0 0.03 0.03 0.03 92 1014.9
20260904133414 78 0.0 4.0 0.03 0.03 0.03 92 1014.9
20260904132913 78 0.0 3.0 0.03 0.03 0.03 91 1015.0
20260904132409 78 0.0 2.0 0.03 0.03 0.03 91 1015.0
20260904131905 78 0.0 4.0 0.03 0.03 0.03 91 1015.0
20260904131403 78 0.0 4.0 0.02 0.02 0.02 91 1015.0
20260904130901 78 0.0 2.0 0.02 0.02 0.02 91 1015.1
20260904130359 78 0.0 2.0 0.02 0.02 0.02 90 1015.2
20260904125855 78 0.0 0.0 0.02 0.02 0.02 90 1015.2
20260904125353 78 0.0 0.0 0.01 0.01 0.01 90 1015.2
20260904124851 78 0.0 0.0 0.01 0.01 0.01 90 1015.2
20260904124349 78 0.0 0.0 0.00 0.00 0.00 89 1015.2
20260904123845 79 0.0 0.0 0.00 0.00 0.00 89 1015.2
20260904123343 79 0.0 0.0 0.00 0.00 0.00 88 1015.2
20260904122841 79 0.0 0.0 0.00 0.00 0.00 87 1015.1
20260904122339 79 0.0 0.0 0.00 0.00 0.00 87 1015.2
20260904121835 79 0.0 0.0 0.00 0.00 0.00 87 1015.1
20260904121333 79 0.0 0.0 0.00 0.00 0.00 87 1015.0
20260904120831 79 0.0 5.0 0.00 0.00 0.00 87 1014.9
20260904120327 79 0.0 5.0 0.00 0.00 0.00 87 1014.8
20260904115825 79 0.0 5.0 0.00 0.00 0.00 86 1014.7
20260904115323 79 1.0 3.0 0.00 0.00 0.00 86 1014.6
20260904114819 79 0.0 3.0 0.00 0.00 0.00 86 1014.5
20260904114317 79 0.0 3.0 0.00 0.00 0.00 86 1014.4
20260904113815 79 188 1.0 3.0 0.00 0.00 0.00 85 1014.3
20260904113313 79 0.0 3.0 0.00 0.00 0.00 85 1014.1
20260904112809 79 0.0 0.0 0.00 0.00 0.00 85 1014.1
20260904112307 79 0.0 0.0 0.00 0.00 0.00 85 1014.0
20260904111805 79 0.0 0.0 0.00 0.00 0.00 85 1013.9
20260904111303 79 0.0 4.0 0.00 0.00 0.00 85 1013.9
20260904110759 79 188 1.0 4.0 0.00 0.00 0.00 85 1013.9
20260904110257 79 1.0 7.0 0.00 0.00 0.00 85 1013.8
20260904105755 79 188 2.0 7.0 0.00 0.00 0.00 85 1013.8
20260904105253 79 189 1.0 4.0 0.00 0.00 0.00 85 1013.8
20260904104749 79 189 1.0 4.0 0.00 0.00 0.00 85 1013.8
20260904104247 79 0.0 3.0 0.00 0.00 0.00 85 1013.7
20260904103745 79 0.0 3.0 0.00 0.00 0.00 85 1013.7
20260904103243 79 0.0 5.0 0.00 0.00 0.00 85 1013.7
20260904102739 79 0.0 5.0 0.00 0.00 0.00 85 1013.7
20260904102237 79 0.0 3.0 0.00 0.00 0.00 84 1013.7
20260904101735 79 0.0 3.0 0.00 0.00 0.00 84 1013.7
20260904101233 79 0.0 2.0 0.00 0.00 0.00 84 1013.7
20260904100729 79 0.0 5.0 0.00 0.00 0.00 84 1013.6
20260904100227 79 1.0 5.0 0.00 0.00 0.00 84 1013.4
20260904095725 79 0.0 3.0 0.00 0.00 0.00 84 1013.4
20260904095223 79 0.0 4.0 0.00 0.00 0.00 83 1013.4
20260904094719 80 189 1.0 4.0 0.00 0.00 0.00 83 1013.4
20260904094217 80 1.0 3.0 0.00 0.00 0.00 83 1013.4
20260904093715 80 0.0 3.0 0.00 0.00 0.00 83 1013.4
20260904093213 80 189 1.0 6.0 0.00 0.00 0.00 83 1013.3
20260904092709 80 0.0 4.0 0.00 0.00 0.00 83 1013.3
20260904092207 80 0.0 5.0 0.00 0.00 0.00 83 1013.3
20260904091703 80 189 1.0 3.0 0.00 0.00 0.00 83 1013.3
20260904091201 80 0.0 4.0 0.00 0.00 0.00 83 1013.4
20260904090659 80 189 1.0 4.0 0.00 0.00 0.00 83 1013.4
20260904090157 80 1.0 4.0 0.00 0.00 0.00 83 1013.5
20260904085653 80 189 1.0 4.0 0.00 0.00 0.00 83 1013.5
20260904085151 80 189 1.0 4.0 0.00 0.00 0.00 83 1013.5
20260904084649 80 0.0 3.0 0.00 0.00 0.00 83 1013.5
20260904084147 80 0.0 4.0 0.00 0.00 0.00 83 1013.4
20260904083643 80 0.0 7.0 0.00 0.00 0.00 82 1013.4
20260904083141 80 0.0 7.0 0.00 0.00 0.00 82 1013.4
20260904082639 80 189 1.0 8.0 0.00 0.00 0.00 82 1013.5
20260904082137 80 191 2.0 8.0 0.00 0.00 0.00 82 1013.6
20260904081633 80 0.0 3.0 0.00 0.00 0.00 82 1013.6
20260904081131 80 178 1.0 6.0 0.00 0.00 0.00 82 1013.5
20260904080629 80 178 2.0 6.0 0.00 0.00 0.00 82 1013.6
20260904080127 80 178 1.0 6.0 0.00 0.00 0.00 82 1013.6
20260904075623 80 0.0 8.0 0.00 0.00 0.00 82 1013.5
20260904075121 80 144 1.0 8.0 0.00 0.00 0.00 82 1013.5
20260904074619 80 138 2.0 7.0 0.00 0.00 0.00 82 1013.5
20260904074117 80 167 2.0 8.0 0.00 0.00 0.00 81 1013.4